CATSAT-1 (44033 NORAD) Tracking and Keplerian Element Data

This shows tracking and keplerian element data for the satellite.

Feedback or suggestion? Click here.




ElementValue
Catalog44033
NameCATSAT-1
Epoch Orbit12561
Epoch Day102.52173143
Epoch Year2021
RAAN214.6392
Inclination51.6349
Eccentricity0.0009094
Argument of Perigee323.2962
Mean Anonmoly36.7435
Mean Motion16.2619591
Decay Rate0.03148828
L11 44033U 98067PZ 21102.52173143 .03148828 12044-4 93890-3 0 9997
L22 44033 51.6349 214.6392 0009094 323.2962 36.7435 16.26195910125613



Live tracking and technical data element details for CATSAT-1 (NORAD 44033). CATSAT-1 can be tracked NOW for your location showing map with azimuth and elevation plus other details from your city location.







IsCatalogInMostPopularTable: catalog: 44033, numindb: 392
Update: records affected: 1



GetName: 44033 CATSAT-1

Hit Count: updated at: Thu, 15 May 2025 09:51:04 GMT